OSCAR 7 (AO-7) 1 07530U 74089B 26121.55341640 -.00000037 00000+0 56694-4 0 9997 2 07530 101.9925 134.3105 0012008 218.7420 258.3890 12.53697391354672 PHASE 3B (AO-10) 1 14129U 83058B 26118.35311208 -.00000137 00000+0 00000+0 0 9992 2 14129 25.8946 227.8674 6028461 101.9264 327.7175 2.05873308294462 UOSAT 2 (UO-11) 1 14781U 84021B 26121.43675316 .00001557 00000+0 16447-3 0 9995 2 14781 97.8026 87.5480 0007279 351.0187 9.0900 14.90671574250163 LUSAT (LO-19) 1 20442U 90005G 26121.50649882 .00000144 00000+0 68328-4 0 9999 2 20442 98.8880 142.0193 0011282 348.7887 11.3044 14.34108332895705 EYESAT A (AO-27) 1 22825U 93061C 26121.15064104 .00000112 00000+0 59552-4 0 9994 2 22825 98.6900 188.5756 0007466 233.5672 126.4823 14.30929178700270 ITAMSAT (IO-26) 1 22826U 93061D 26121.42366525 .00000127 00000+0 64697-4 0 9999 2 22826 98.6846 188.7614 0008249 214.7517 145.3128 14.31354970700624 RADIO ROSTO (RS15) 1 23439U 94085A 26121.19945777 -.00000039 00000+0 10912-3 0 9996 2 23439 64.8209 19.2088 0154617 12.4382 348.0292 11.27583770290600 JAS-2 (FO-29) 1 24278U 96046B 26121.13969796 .00000010 00000+0 46840-4 0 9996 2 24278 98.5294 336.4418 0349202 218.3995 139.1818 13.53272049466809 TECHSAT 1B (GO-32) 1 25397U 98043D 26121.42288839 .00000075 00000+0 52454-4 0 9991 2 25397 99.0062 113.0056 0001571 34.0609 326.0669 14.24419096444673 ISS (ZARYA) 1 25544U 98067A 26121.49020499 .00007209 00000+0 13861-3 0 9998 2 25544 51.6312 171.2410 0007219 11.5197 348.5956 15.49047734564514 PCSAT (NO-44) 1 26931U 01043C 26121.08321288 .00000152 00000+0 87653-4 0 9993 2 26931 67.0526 6.1038 0006440 263.9297 96.1071 14.31937472283704 SAUDISAT 1C (SO-50) 1 27607U 02058C 26121.42305233 .00001417 00000+0 18400-3 0 9999 2 27607 64.5517 273.6595 0075620 270.9681 88.2762 14.82944029257529 CUTE-1 (CO-55) 1 27844U 03031E 26121.46227727 .00000347 00000+0 16912-3 0 9996 2 27844 98.6752 130.6070 0008831 327.8386 32.2254 14.24306365185026 CUBESAT XI-IV (CO-57) 1 27848U 03031J 26121.00566327 .00000259 00000+0 13282-3 0 9991 2 27848 98.6788 129.9070 0009102 348.5967 11.5004 14.23594934184669 MOZHAETS 4 (RS22) 1 27939U 03042A 26121.56405872 .00001195 00000+0 19257-3 0 9990 2 27939 98.3463 304.6092 0012413 59.8169 32.8140 14.73383753208684 CUBESAT XI-V 1 28895U 05043F 26121.38168872 .00001682 00000+0 27279-3 0 9995 2 28895 98.2930 276.0386 0013904 359.4957 0.6233 14.72507657 94861 CUTE-1.7+APD II (CO-65) 1 32785U 08021C 26121.50657722 .00006078 00000+0 38822-3 0 9998 2 32785 97.8250 101.9787 0008928 176.7549 183.3738 15.09004228978151 SEEDS II (CO-66) 1 32791U 08021J 26121.43205317 .00025799 00000+0 85778-3 0 9999 2 32791 97.7524 117.1599 0005095 106.4082 253.7719 15.31151147980135 YUBILEINY (RS30) 1 32953U 08025A 26121.50165410 .00000029 00000+0 13534-3 0 9990 2 32953 82.5083 24.4774 0020588 54.2479 306.0512 12.43177672813898 KKS-1 (KISEKI) 1 33499U 09002H 26121.50053431 .00001589 00000+0 20224-3 0 9997 2 33499 98.1194 43.2077 0009350 82.7872 277.4403 14.83001181929279 SWISSCUBE 1 35932U 09051B 26121.16438687 .00001246 00000+0 25621-3 0 9993 2 35932 98.4066 28.2309 0007070 10.5542 349.5806 14.62388925882283 BEESAT-1 1 35933U 09051C 26121.49187311 .00000986 00000+0 20814-3 0 9994 2 35933 98.3993 28.2965 0005843 25.3927 334.7560 14.61642278882362 ITUPSAT1 1 35935U 09051E 26121.44198973 .00000958 00000+0 20807-3 0 9998 2 35935 98.4079 27.4868 0008214 32.2271 327.9429 14.60368841881915 XIWANG-1 (HOPE-1) 1 36122U 09072B 26121.50442624 -.00000274 00000+0 -60253-3 0 9994 2 36122 100.3993 76.0896 0007439 345.7600 14.3302 13.16437397786867 O/OREOS (USA 219) 1 37224U 10062C 26121.51505094 .00002326 00000+0 22607-3 0 9990 2 37224 71.9708 186.0418 0013766 163.2174 196.9455 14.93554464109674 JUGNU 1 37839U 11058B 26121.50666331 .00000475 00000+0 10819-3 0 9994 2 37839 19.9602 232.0272 0018462 281.3375 163.7591 14.13762729752410 SRMSAT 1 37841U 11058D 26121.30100331 .00000439 00000+0 94558-4 0 9991 2 37841 19.9736 343.2629 0011755 48.5124 107.4821 14.11564780751184 STRAND-1 1 39090U 13009E 26121.47860795 .00000327 00000+0 12430-3 0 9996 2 39090 98.3913 302.8650 0008934 18.7908 341.3607 14.37135332690356 ZACUBE-1 (TSHEPISOSAT) 1 39417U 13066B 26121.34297200 .00007108 00000+0 55318-3 0 9999 2 39417 97.8126 83.4276 0043542 50.2188 310.2857 15.00807537673706 GOMX-1 1 39430U 13066Q 26121.53836565 .00001872 00000+0 28797-3 0 9991 2 39430 97.6514 324.9407 0127749 226.9491 132.0963 14.69280005663065 CUBEBUG-2 (LO-74) 1 39440U 13066AA 26121.43473389 .00003592 00000+0 33659-3 0 9996 2 39440 97.8882 70.2387 0057790 180.9499 179.1620 14.93427587670019 FUNCUBE-1 (AO-73) 1 39444U 13066AE 26121.44559731 .00012990 00000+0 81544-3 0 9995 2 39444 97.8253 91.9465 0036880 6.2751 353.8931 15.08853314672612 UWE-3 1 39446U 13066AG 26121.28734808 .00005946 00000+0 51306-3 0 9995 2 39446 97.8671 77.0710 0051130 115.1955 245.4580 14.96635540670560 UNISAT-6 1 40012U 14033C 26121.40062557 .00003857 00000+0 41908-3 0 9996 2 40012 97.7818 274.9606 0044418 221.3141 138.4713 14.87969569639209 DUCHIFAT-1 1 40021U 14033M 26121.39647666 .00105088 00000+0 14537-2 0 9990 2 40021 98.0526 174.3066 0004768 217.2554 142.8369 15.56751210648450 QB50P1 1 40025U 14033R 26121.47685958 .00010840 00000+0 54321-3 0 9996 2 40025 98.0981 129.3727 0009648 36.5291 323.6597 15.17525558645949 LILACSAT-2 1 40908U 15049K 26121.55144623 .00020485 00000+0 36750-3 0 9994 2 40908 97.4712 156.6605 0008565 71.6889 288.5293 15.49908154588526 FOX-1A (AO-85) 1 40967U 15058D 26121.26169140 .00004716 00000+0 42437-3 0 9996 2 40967 64.7761 64.7792 0128635 74.9744 286.5563 14.90682726106573 CAS-2T & KS-1Q 1 41847U 16066G 26121.48700463 .00000768 00000+0 11825-3 0 9997 2 41847 98.3830 197.7504 0340906 271.2711 84.9453 14.44575152498050 RADFXSAT (FOX-1B) 1 43017U 17073E 26121.16329175 .00012541 00000+0 55126-3 0 9993 2 43017 97.4773 349.3595 0154217 130.5283 230.9499 15.11859548458284 DIWATA-2B 1 43678U 18084H 26121.48475572 .00003452 00000+0 28079-3 0 9995 2 43678 98.1069 315.7024 0012793 331.5123 28.5398 15.00219831409216 ES'HAIL 2 1 43700U 18090A 26120.49191795 .00000147 00000+0 00000+0 0 9998 2 43700 0.0137 266.9736 0001700 165.7205 348.6817 1.00277015 27199 FOX-1CLIFF (AO-95) 1 43770U 18099N 26121.32969381 .00016992 00000+0 66806-3 0 9996 2 43770 97.4418 181.7783 0010010 146.1363 214.0516 15.25691118406072 ITASAT 1 43786U 18099AE 26121.11067115 .00008202 00000+0 40048-3 0 9999 2 43786 97.4066 173.5740 0013701 151.0903 209.1093 15.18440965405769 JY1SAT (JO-97) 1 43803U 18099AX 26121.42128916 .00024154 00000+0 77797-3 0 9995 2 43803 97.4161 184.1404 0007197 84.4383 275.7679 15.32171186406462 UWE-4 1 43880U 18111E 26121.24780919 .00042968 00000+0 96162-3 0 9992 2 43880 97.5866 47.5858 0010346 124.5765 235.6460 15.43293061403532 TIANYAN 01 1 44881U 19093C 26121.46309395 .00000263 00000+0 35780-4 0 9995 2 44881 97.7550 194.8332 0012233 238.2368 121.7656 14.86440075344472 RS-44 & BREEZE-KM R/B 1 44909U 19096E 26121.40905123 .00000019 00000+0 39496-4 0 9991 2 44909 82.5257 10.7913 0216406 253.7065 104.0137 12.79747967296366 SALSAT 1 46495U 20068K 26120.97394616 .00009136 00000+0 32572-3 0 9990 2 46495 97.8854 121.1916 0011671 106.1690 254.0834 15.29093123308148 XW-3 (CAS-9) 1 50466U 21131B 26121.54298543 .00000366 00000+0 12677-3 0 9991 2 50466 98.4958 214.1922 0003136 226.1406 133.9524 14.41311258228392 GREENCUBE (IO-117) 1 53109U 22080E 26121.49337740 -.00000003 00000+0 00000+0 0 9991 2 53109 70.1455 314.4923 0008861 300.4355 59.5429 6.42583336 89068 UMKA 1 (RS40S) 1 57172U 23091G 26121.50163512 .00007580 00000+0 35157-3 0 9995 2 57172 97.5086 180.3890 0011227 283.4844 76.5139 15.20288984156914 CUBESX-HSE 3 (RS42S) 1 57178U 23091N 26121.49530628 .00015804 00000+0 54486-3 0 9999 2 57178 97.5122 186.5294 0009541 253.4986 106.5206 15.30046480157281 MONITOR-3 (RS58S) 1 57180U 23091Q 26121.48609328 .00012301 00000+0 46732-3 0 9999 2 57180 97.5115 184.6167 0010297 261.6310 98.3761 15.26909274157161 MONITOR-4 (RS57S) 1 57182U 23091S 26121.46806670 .00013171 00000+0 49867-3 0 9996 2 57182 97.5109 184.5666 0010288 262.3469 97.6602 15.27005651157165 MONITOR-2 (RS39S) 1 57184U 23091U 26121.53182080 .00005514 00000+0 27053-3 0 9993 2 57184 97.5108 180.1231 0009611 275.0665 84.9472 15.18478018156875 SVYATOBOR 1 (RS60S) 1 57187U 23091X 26121.50857691 .00011187 00000+0 43967-3 0 9995 2 57187 97.5122 185.0894 0008062 252.0324 108.0036 15.25822138157193 VIZARD-METEO (RS38S) 1 57189U 23091Z 26121.48007244 .00020088 00000+0 60124-3 0 9999 2 57189 97.5118 190.0788 0006573 226.3463 133.7235 15.34553451157523 POLYTECH-UNIVERSE 3 (R*) 1 57191U 23091AB 26121.49922797 .00006134 00000+0 29849-3 0 9997 2 57191 97.5083 179.5958 0014009 293.9451 66.0316 15.18675448156865 UTMN 2 (RS27S) 1 57203U 23091AP 26121.47358698 .00016344 00000+0 54885-3 0 9994 2 57203 97.5116 188.0837 0007060 236.5982 123.4583 15.30910745157397 KUZGTU 1 (RS47S) 1 57217U 23091AV 26121.51225523 .00015149 00000+0 54272-3 0 9996 2 57217 97.5096 185.5493 0009635 257.8197 102.1963 15.28800369157240 SONATE-2 1 59112U 24043Q 26121.35041039 .00051319 00000+0 75111-3 0 9994 2 59112 97.5482 269.0148 0006465 19.5658 340.5843 15.55417539120601 MESAT1 1 60209U 24125G 26121.10918356 .00057656 00000+0 75033-3 0 9995 2 60209 97.2360 337.6755 0011138 40.6829 319.5258 15.58511163102221 OOV-CUBE (TUBSAT-30) 1 60240U 24128F 26121.47437660 .00002792 00000+0 21924-3 0 9998 2 60240 61.9969 28.4286 0050038 123.4972 237.0916 15.02537975 99097 COLIBRI-S (RS67S) 1 61746U 24199M 26121.48100177 .00026939 00000+0 55569-3 0 9990 2 61746 97.3064 354.9636 0010761 91.7386 268.5096 15.45793171130193 HORS 3 (RS81S) 1 61753U 24199U 26121.51373933 .00042106 00000+0 70088-3 0 9991 2 61753 97.3046 356.5231 0009220 95.8235 264.4069 15.51872796130313 HORS 4 (RS82S) 1 61754U 24199V 26121.53502446 .00048709 00000+0 70804-3 0 9998 2 61754 97.3001 357.4812 0008290 92.6907 267.5297 15.55600000130382 HORIZON (RS59S) 1 61757U 24199Y 26121.48729522 .00605016 15498-3 15238-2 0 9991 2 61757 97.2889 3.4268 0004657 132.7464 227.4204 15.95606657130761 ARCTICSAT 1 (RS74S) 1 61762U 24199AD 26121.01234739 .00240401 00000+0 12753-2 0 9998 2 61762 97.2950 1.8007 0005761 94.0049 266.1877 15.79850489130611 SIT-2086 1 61764U 24199AF 26121.43604501 .00032538 00000+0 57554-3 0 9993 2 61764 97.3021 357.0747 0008659 82.6487 277.5748 15.50215545127186 HYPERVIEW 1G (RS66S) 1 61772U 24199AP 26121.48214230 .00099333 00000+0 96199-3 0 9997 2 61772 97.2971 359.2052 0008964 93.6064 266.6222 15.66029721127343 ALTAIR (RS65S) 1 61779U 24199AW 26121.48429895 .00014436 00000+0 41062-3 0 9999 2 61779 97.3093 351.1595 0014777 111.7563 248.5255 15.36133458129947 ASRTU-1 (AO-123) 1 61781U 24199AY 26121.56464941 .00009612 00000+0 28438-3 0 9994 2 61781 97.3064 350.6643 0015763 113.7547 246.5352 15.34986458126774 TUSUR GO (RS78S) 1 61782U 24199AZ 26121.03407985 .01100555 66569-3 16930-2 0 9990 2 61782 97.2851 2.1314 0005004 163.9412 196.2029 16.04437958127505 SAMSAT-IONOSPHERE (RS7*) 1 61784U 24199BB 26121.55059448 .00048367 00000+0 75088-3 0 9991 2 61784 97.3019 356.4669 0011507 95.7862 264.4704 15.53757322130312 RTU MIREA 1 (RS51S) 1 61785U 24199BC 26121.53617350 .00055306 00000+0 77958-3 0 9991 2 61785 97.3013 357.0760 0011310 94.0080 266.2468 15.56372619127208 TEVEL2-4 1 63213U 25052D 26121.46928522 .00026491 00000+0 83184-3 0 9997 2 63213 97.3958 17.8314 0000263 289.8080 70.3134 15.32990178 62953 TEVEL2-5 1 63214U 25052E 26120.70152576 .00018680 00000+0 59139-3 0 9996 2 63214 97.3959 17.0242 0000402 308.3019 51.8187 15.32799831 62833 TEVEL2-6 1 63215U 25052F 26121.43081705 .00026489 00000+0 83668-3 0 9993 2 63215 97.3959 17.7384 0000442 292.7494 67.3701 15.32802421 62941 TEVEL2-1 1 63217U 25052H 26121.50983242 .00022296 00000+0 71563-3 0 9993 2 63217 97.3935 17.4946 0000926 339.3050 20.8154 15.32322335 62948 TEVEL2-3 1 63218U 25052J 26120.65708406 .00018565 00000+0 59650-3 0 9993 2 63218 97.3940 16.6597 0001079 343.6471 16.4736 15.32327642 62812 TEVEL2-2 1 63219U 25052K 26120.66141397 .00018724 00000+0 60232-3 0 9990 2 63219 97.3937 16.6490 0001079 344.9311 15.1898 15.32287401 62811 TEVEL2-9 1 63237U 25052AD 26121.16801952 .00023407 00000+0 79527-3 0 9997 2 63237 97.3998 16.6267 0004692 325.1315 34.9617 15.30467898 62837 TEVEL2-7 1 63238U 25052AE 26121.46205588 .00023495 00000+0 80433-3 0 9999 2 63238 97.4000 16.8542 0004757 323.5188 36.5728 15.30220296 62877 TEVEL2-8 1 63239U 25052AF 26121.14281452 .00022635 00000+0 77585-3 0 9998 2 63239 97.3997 16.5147 0004795 326.5338 33.5599 15.30188164 62827 HADES-ICM 1 63492U 25052BN 26121.18628197 .00635941 00000+0 30472-2 0 9997 2 63492 97.3818 24.3310 0004907 153.9565 206.1951 15.81085461 63360 INNOSAT 16 (RS92S7) 1 64878U 25155C 26121.48623012 .00007508 00000+0 30388-3 0 9993 2 64878 97.4536 88.7918 0010384 1.8748 358.2526 15.24936117 73554 GEOSCAN 6 (RS92S6) 1 64879U 25155D 26121.54075331 .00013786 00000+0 48775-3 0 9990 2 64879 97.4530 89.9546 0007406 359.6789 0.4445 15.29249099 73635 GEOSCAN 1 (RS92S1) 1 64880U 25155E 26121.49478029 .00014312 00000+0 49824-3 0 9999 2 64880 97.4527 90.0187 0007340 0.6079 359.5169 15.29768553 73631 239ALFEROV (RS61S) 1 64881U 25155F 26121.52652322 .00019399 00000+0 63560-3 0 9997 2 64881 97.4529 90.4655 0006843 1.5594 358.5667 15.31669729 73660 GEOSCAN 2 (RS92S2) 1 64890U 25155Q 26121.49689877 .00014284 00000+0 49298-3 0 9998 2 64890 97.4525 90.1545 0006160 348.2087 11.9008 15.30057207 73649 GEOSCAN 5 (RS92S5) 1 64891U 25155R 26121.52527750 .00019331 00000+0 62711-3 0 9997 2 64891 97.4522 90.5838 0006076 11.6564 348.4817 15.31995606 73677 GEOSCAN 4 (RS92S4) 1 64892U 25155S 26121.51371186 .00019164 00000+0 61928-3 0 9990 2 64892 97.4525 90.6084 0006090 12.2037 347.9351 15.32122231 73677 GEOSCAN 3 (RS92S3) 1 64893U 25155T 26121.50490098 .00022741 00000+0 69634-3 0 9991 2 64893 97.4515 90.9056 0005805 16.2612 343.8815 15.33809130 73698 INNOSAT 3 (RS92S0) 1 64894U 25155U 26121.52954036 .00046607 00000+0 11402-2 0 9997 2 64894 97.4474 92.0349 0005038 27.0524 333.0984 15.40636257 73774 KNACKSAT-2 1 67683U 98067XZ 26121.39473065 .00052169 00000+0 73373-3 0 9997 2 67683 51.6293 169.1056 0012649 24.1266 336.0316 15.56061539 12982